Location: Gro�bocka
(50.8204°N, 11.9702°E)
Time: 01:46:41
(UTC+00:00)

ATLAS 2AS CENTAUR R/B - Pass Details

Date: 29 October 2020
Orbit: 939 x 1273 km, 63.7° (Epoch: 23 November)

Event Time Altitude Azimuth Distance (km) Brightness Sun altitude
Rises 16:21:42 0° 304° (NW) 4,216 6.5 -5.4°
Reaches altitude 10° 16:24:52 10° 313° (NW) 3,220 5.7 -5.8°
Maximum altitude 16:31:57 37° 18° (NNE) 1,784 3.7 -6.9°
Drops below altitude 10° 16:38:35 10° 84° (E) 3,017 4.4 -8.0°
Enters shadow 16:38:50 - 85° (E) 3,094 4.4 -8.0°
